Maersk Dunbar — A8GU7 — position and weather

sailwx.info

Track history (hours):
 
Tides and Currents Weather Stations Pressure Air Temp Water Temp Dewpoint Dewpoint Depression Visibility Wind Speed Wind Dir Waves Ship Positions

Maersk Dunbar

Last reported at 2018-Jun-20 22:28 UTC. Time now 2018-Jun-20 22:42 UTC.
Position N 26°04' W 080°07'.

Length 264 m; beam 32.3 m; draft 12.5 m.

Type: Ship (hazmat cat B). MMSI: 636090862.

Date/timePositionNaut miles runAvg speedWind from/ knotsBaromVisibWave heightAir tempDewpointWater temp
2018-Jun-20 22:28N 26°04' W 080°07'0 0.0
2018-Jun-20 21:58N 26°04' W 080°07'0 0.0
2018-Jun-20 21:28N 26°04' W 080°07'0 0.0
2018-Jun-20 20:46N 26°04' W 080°07'0 0.0
2018-Jun-20 19:46N 26°04' W 080°07'0 0.0
2018-Jun-20 19:28N 26°04' W 080°07'0 0.0
2018-Jun-20 18:58N 26°04' W 080°07'0 0.0
2018-Jun-20 18:28N 26°04' W 080°07'0 0.0
2018-Jun-20 17:58N 26°04' W 080°07'0 0.0
2018-Jun-20 17:28N 26°04' W 080°07'0 0.0
2018-Jun-20 16:58N 26°04' W 080°07'0 0.8
2018-Jun-20 16:30N 26°05' W 080°07'2 4.8
2018-Jun-20 16:00N 26°06' W 080°04'3 5.6
2018-Jun-20 15:30N 26°06' W 080°01'2 3.3
2018-Jun-20 15:00N 26°06' W 079°59'3 6.0
2018-Jun-20 14:30N 26°06' W 079°56'3 5.7
2018-Jun-20 14:00N 26°06' W 079°53'3 5.5
2018-Jun-20 13:29N 26°07' W 079°50'3 5.3
2018-Jun-20 13:00N 26°09' W 079°48'5 9.6
2018-Jun-20 12:29N 26°13' W 079°46'11417.6
2018-Jun-20 06:00N 28°00' W 079°00'28917.5 160 / 121016.010.8 25.022.228.0
2018-Jun-19 13:32N 32°45' W 079°52'210.2
2018-Jun-19 13:22N 32°46' W 079°53'2 0.1
2018-Jun-18 21:05N 32°48' W 079°55'1 7.7
2018-Jun-18 21:00N 32°47' W 079°55'38611.7
2018-Jun-17 12:05N 38°34' W 076°26'1618.9
2018-Jun-17 11:14N 38°50' W 076°24'418.6
2018-Jun-17 11:00N 38°54' W 076°24'1113.8
2018-Jun-17 10:14N 39°05' W 076°24'412.4
2018-Jun-17 09:54N 39°09' W 076°25'510.7
2018-Jun-17 09:29N 39°12' W 076°29'5 9.6
2018-Jun-17 09:00N 39°15' W 076°33'1 0.5
2018-Jun-17 07:27N 39°15' W 076°33'0 0.0
2018-Jun-17 07:00N 39°15' W 076°33'0 0.0
2018-Jun-17 06:30N 39°15' W 076°33'0 0.0
2018-Jun-17 06:00N 39°15' W 076°33'0 0.0
2018-Jun-17 05:30N 39°15' W 076°33'0 0.0
2018-Jun-17 05:00N 39°15' W 076°33'0 0.0
2018-Jun-17 04:30N 39°15' W 076°33'0 0.0
2018-Jun-17 03:57N 39°15' W 076°33'0 0.0
2018-Jun-17 03:30N 39°15' W 076°33'0 0.0
2018-Jun-17 02:54N 39°15' W 076°33'0 0.0
2018-Jun-17 01:54N 39°15' W 076°33'0 0.0
2018-Jun-17 01:30N 39°15' W 076°33'0 0.0
2018-Jun-17 00:54N 39°15' W 076°33'0 0.0
2018-Jun-17 00:30N 39°15' W 076°33'0 0.0
2018-Jun-17 00:00N 39°15' W 076°33'0 0.0
2018-Jun-16 23:29N 39°15' W 076°33'0 0.0
2018-Jun-16 22:41N 39°15' W 076°33'0 0.0
2018-Jun-16 22:08N 39°15' W 076°33'0 0.0
2018-Jun-16 20:41N 39°15' W 076°33'0 0.0
2018-Jun-16 19:20N 39°15' W 076°33'0 0.0
2018-Jun-16 18:59N 39°15' W 076°33'0 0.0
2018-Jun-16 18:26N 39°15' W 076°33'0 0.0
2018-Jun-16 17:32N 39°15' W 076°33'0 0.0
2018-Jun-16 17:24N 39°15' W 076°33'0 0.0
2018-Jun-16 16:56N 39°15' W 076°33'0 0.0
2018-Jun-16 16:18N 39°15' W 076°33'0 0.0
2018-Jun-16 15:56N 39°15' W 076°33'0 0.0
2018-Jun-16 15:12N 39°15' W 076°33'0 0.0
2018-Jun-16 14:59N 39°15' W 076°33'0 0.0
2018-Jun-16 14:18N 39°15' W 076°33'0 0.0
2018-Jun-16 13:54N 39°15' W 076°33'0 0.0
2018-Jun-16 13:29N 39°15' W 076°33'0 0.0
2018-Jun-16 12:56N 39°15' W 076°33'0 0.0
2018-Jun-16 12:30N 39°15' W 076°33'0 0.0
2018-Jun-16 12:00N 39°15' W 076°33'0 0.0
2018-Jun-16 11:17N 39°15' W 076°33'0 0.0
2018-Jun-16 10:59N 39°15' W 076°33'0 0.0
2018-Jun-16 10:30N 39°15' W 076°33'0 0.0
2018-Jun-16 09:35N 39°15' W 076°33'0 0.0
2018-Jun-16 09:26N 39°15' W 076°33'0 0.0
2018-Jun-16 08:56N 39°15' W 076°33'0 0.0
2018-Jun-16 08:30N 39°15' W 076°33'1 2.1
2018-Jun-16 08:00N 39°14' W 076°33'3 5.7
2018-Jun-16 07:28N 39°12' W 076°30'612.3
2018-Jun-16 07:00N 39°08' W 076°24'915.5
2018-Jun-16 06:27N 39°00' W 076°23'817.8
2018-Jun-16 06:00N 38°52' W 076°24'112 9.3
2018-Jun-15 18:00N 37°30' W 074°48'13414.1 070 / 121015.010.8 25.022.220.0
2018-Jun-15 08:32N 39°37' W 073°54'314.8
2018-Jun-15 08:21N 39°39' W 073°53'5912.1
2018-Jun-15 03:28N 40°38' W 074°03'3 7.2
2018-Jun-15 03:00N 40°39' W 074°08'2 0.1
2018-Jun-14 09:42N 40°39' W 074°10'2 7.3
2018-Jun-14 09:29N 40°39' W 074°08'4 7.6
2018-Jun-14 09:00N 40°38' W 074°03'10011.1
2018-Jun-14 00:00N 39°00' W 073°42'9315.5 200 / 141011.0 2.2 22.019.021.0
2018-Jun-13 18:00N 37°30' W 074°12'7512.4 160 / 151018.0 27.025.727.0
2018-Jun-13 12:00N 36°18' W 074°36'10016.7 160 / 131018.010.8 25.022.225.0
2018-Jun-13 06:00N 34°42' W 075°12'10517.6 200 / 161019.0 5.4 28.025.328.0
2018-Jun-13 00:00N 33°12' W 076°18'10317.2 200 / 151018.010.8 29.024.927.0
2018-Jun-12 18:00N 31°42' W 077°18'9616.0 200 / 141018.010.8 35.031.229.0
2018-Jun-12 12:00N 30°18' W 078°12'10417.3 200 / 91018.010.8 27.021.327.0
2018-Jun-12 06:00N 28°48' W 079°12'9816.4 200 / 151017.010.8 27.025.728.0
2018-Jun-12 00:00N 27°12' W 079°36'6118.8 150 / 91017.010.8 29.026.329.0
2018-Jun-11 20:44N 26°13' W 079°54'416.5
2018-Jun-11 20:30N 26°11' W 079°57'815.8
2018-Jun-11 20:00N 26°06' W 080°04'3 5.2
2018-Jun-11 19:30N 26°05' W 080°07'1 0.6
2018-Jun-11 18:33N 26°04' W 080°07'0 0.0
2018-Jun-11 18:21N 26°04' W 080°07'0 0.0
2018-Jun-11 18:00N 26°04' W 080°07'0 0.0
2018-Jun-11 17:30N 26°04' W 080°07'0 0.0
2018-Jun-11 17:00N 26°04' W 080°07'0 0.0
2018-Jun-11 16:18N 26°04' W 080°07'0 0.0
2018-Jun-11 15:48N 26°04' W 080°07'0 0.0
2018-Jun-11 15:21N 26°04' W 080°07'0 0.0
2018-Jun-11 14:51N 26°04' W 080°07'0 0.0
2018-Jun-11 14:18N 26°04' W 080°07'0 0.0
2018-Jun-11 13:51N 26°04' W 080°07'0 0.0
2018-Jun-11 13:21N 26°04' W 080°07'0 0.0
2018-Jun-11 12:54N 26°04' W 080°07'0 0.0
2018-Jun-11 12:24N 26°04' W 080°07'0 0.0
2018-Jun-11 11:54N 26°04' W 080°07'0 0.0
2018-Jun-11 11:30N 26°04' W 080°07'1 2.5
2018-Jun-11 11:00N 26°06' W 080°07'4 8.2
2018-Jun-11 10:30N 26°06' W 080°02'4 8.0
2018-Jun-11 10:00N 26°06' W 079°58'510.1
2018-Jun-11 09:30N 26°05' W 079°52'3 6.8
2018-Jun-11 09:00N 26°05' W 079°48'3912.9
2018-Jun-11 06:00N 25°30' W 079°30'   140 / 121017.0 5.4 28.028.028.0
Track history (hours):
 
Tides and Currents Weather Stations Pressure Air Temp Water Temp Dewpoint Dewpoint Depression Visibility Wind Speed Wind Dir Waves Ship Positions

Maersk Dunbar

Last reported at 2018-Jun-20 22:28 UTC. Time now 2018-Jun-20 22:42 UTC.
Position N 26°04' W 080°07'.

Length 264 m; beam 32.3 m; draft 12.5 m.

Type: Ship (hazmat cat B). MMSI: 636090862.

Date/timePositionNaut miles runAvg speedWind from/ knotsBaromVisibWave heightAir tempDewpointWater temp
2018-Jun-20 22:28N 26°04' W 080°07'0 0.0
2018-Jun-20 21:58N 26°04' W 080°07'0 0.0
2018-Jun-20 21:28N 26°04' W 080°07'0 0.0
2018-Jun-20 20:46N 26°04' W 080°07'0 0.0
2018-Jun-20 19:46N 26°04' W 080°07'0 0.0
2018-Jun-20 19:28N 26°04' W 080°07'0 0.0
2018-Jun-20 18:58N 26°04' W 080°07'0 0.0
2018-Jun-20 18:28N 26°04' W 080°07'0 0.0
2018-Jun-20 17:58N 26°04' W 080°07'0 0.0
2018-Jun-20 17:28N 26°04' W 080°07'0 0.0
2018-Jun-20 16:58N 26°04' W 080°07'0 0.8
2018-Jun-20 16:30N 26°05' W 080°07'2 4.8
2018-Jun-20 16:00N 26°06' W 080°04'3 5.6
2018-Jun-20 15:30N 26°06' W 080°01'2 3.3
2018-Jun-20 15:00N 26°06' W 079°59'3 6.0
2018-Jun-20 14:30N 26°06' W 079°56'3 5.7
2018-Jun-20 14:00N 26°06' W 079°53'3 5.5
2018-Jun-20 13:29N 26°07' W 079°50'3 5.3
2018-Jun-20 13:00N 26°09' W 079°48'5 9.6
2018-Jun-20 12:29N 26°13' W 079°46'11417.6
2018-Jun-20 06:00N 28°00' W 079°00'28917.5 160 / 121016.010.8 25.022.228.0
2018-Jun-19 13:32N 32°45' W 079°52'210.2
2018-Jun-19 13:22N 32°46' W 079°53'2 0.1
2018-Jun-18 21:05N 32°48' W 079°55'1 7.7
2018-Jun-18 21:00N 32°47' W 079°55'38611.7
2018-Jun-17 12:05N 38°34' W 076°26'1618.9
2018-Jun-17 11:14N 38°50' W 076°24'418.6
2018-Jun-17 11:00N 38°54' W 076°24'1113.8
2018-Jun-17 10:14N 39°05' W 076°24'412.4
2018-Jun-17 09:54N 39°09' W 076°25'510.7
2018-Jun-17 09:29N 39°12' W 076°29'5 9.6
2018-Jun-17 09:00N 39°15' W 076°33'1 0.5
2018-Jun-17 07:27N 39°15' W 076°33'0 0.0
2018-Jun-17 07:00N 39°15' W 076°33'0 0.0
2018-Jun-17 06:30N 39°15' W 076°33'0 0.0
2018-Jun-17 06:00N 39°15' W 076°33'0 0.0
2018-Jun-17 05:30N 39°15' W 076°33'0 0.0
2018-Jun-17 05:00N 39°15' W 076°33'0 0.0
2018-Jun-17 04:30N 39°15' W 076°33'0 0.0
2018-Jun-17 03:57N 39°15' W 076°33'0 0.0
2018-Jun-17 03:30N 39°15' W 076°33'0 0.0
2018-Jun-17 02:54N 39°15' W 076°33'0 0.0
2018-Jun-17 01:54N 39°15' W 076°33'0 0.0
2018-Jun-17 01:30N 39°15' W 076°33'0 0.0
2018-Jun-17 00:54N 39°15' W 076°33'0 0.0
2018-Jun-17 00:30N 39°15' W 076°33'0 0.0
2018-Jun-17 00:00N 39°15' W 076°33'0 0.0
2018-Jun-16 23:29N 39°15' W 076°33'0 0.0
2018-Jun-16 22:41N 39°15' W 076°33'0 0.0
2018-Jun-16 22:08N 39°15' W 076°33'0 0.0
2018-Jun-16 20:41N 39°15' W 076°33'0 0.0
2018-Jun-16 19:20N 39°15' W 076°33'0 0.0
2018-Jun-16 18:59N 39°15' W 076°33'0 0.0
2018-Jun-16 18:26N 39°15' W 076°33'0 0.0
2018-Jun-16 17:32N 39°15' W 076°33'0 0.0
2018-Jun-16 17:24N 39°15' W 076°33'0 0.0
2018-Jun-16 16:56N 39°15' W 076°33'0 0.0
2018-Jun-16 16:18N 39°15' W 076°33'0 0.0
2018-Jun-16 15:56N 39°15' W 076°33'0 0.0
2018-Jun-16 15:12N 39°15' W 076°33'0 0.0
2018-Jun-16 14:59N 39°15' W 076°33'0 0.0
2018-Jun-16 14:18N 39°15' W 076°33'0 0.0
2018-Jun-16 13:54N 39°15' W 076°33'0 0.0
2018-Jun-16 13:29N 39°15' W 076°33'0 0.0
2018-Jun-16 12:56N 39°15' W 076°33'0 0.0
2018-Jun-16 12:30N 39°15' W 076°33'0 0.0
2018-Jun-16 12:00N 39°15' W 076°33'0 0.0
2018-Jun-16 11:17N 39°15' W 076°33'0 0.0
2018-Jun-16 10:59N 39°15' W 076°33'0 0.0
2018-Jun-16 10:30N 39°15' W 076°33'0 0.0
2018-Jun-16 09:35N 39°15' W 076°33'0 0.0
2018-Jun-16 09:26N 39°15' W 076°33'0 0.0
2018-Jun-16 08:56N 39°15' W 076°33'0 0.0
2018-Jun-16 08:30N 39°15' W 076°33'1 2.1
2018-Jun-16 08:00N 39°14' W 076°33'3 5.7
2018-Jun-16 07:28N 39°12' W 076°30'612.3
2018-Jun-16 07:00N 39°08' W 076°24'915.5
2018-Jun-16 06:27N 39°00' W 076°23'817.8
2018-Jun-16 06:00N 38°52' W 076°24'112 9.3
2018-Jun-15 18:00N 37°30' W 074°48'13414.1 070 / 121015.010.8 25.022.220.0
2018-Jun-15 08:32N 39°37' W 073°54'314.8
2018-Jun-15 08:21N 39°39' W 073°53'5912.1
2018-Jun-15 03:28N 40°38' W 074°03'3 7.2
2018-Jun-15 03:00N 40°39' W 074°08'2 0.1
2018-Jun-14 09:42N 40°39' W 074°10'2 7.3
2018-Jun-14 09:29N 40°39' W 074°08'4 7.6
2018-Jun-14 09:00N 40°38' W 074°03'10011.1
2018-Jun-14 00:00N 39°00' W 073°42'9315.5 200 / 141011.0 2.2 22.019.021.0
2018-Jun-13 18:00N 37°30' W 074°12'7512.4 160 / 151018.0 27.025.727.0
2018-Jun-13 12:00N 36°18' W 074°36'10016.7 160 / 131018.010.8 25.022.225.0
2018-Jun-13 06:00N 34°42' W 075°12'10517.6 200 / 161019.0 5.4 28.025.328.0
2018-Jun-13 00:00N 33°12' W 076°18'10317.2 200 / 151018.010.8 29.024.927.0
2018-Jun-12 18:00N 31°42' W 077°18'9616.0 200 / 141018.010.8 35.031.229.0
2018-Jun-12 12:00N 30°18' W 078°12'10417.3 200 / 91018.010.8 27.021.327.0
2018-Jun-12 06:00N 28°48' W 079°12'9816.4 200 / 151017.010.8 27.025.728.0
2018-Jun-12 00:00N 27°12' W 079°36'6118.8 150 / 91017.010.8 29.026.329.0
2018-Jun-11 20:44N 26°13' W 079°54'416.5
2018-Jun-11 20:30N 26°11' W 079°57'815.8
2018-Jun-11 20:00N 26°06' W 080°04'3 5.2
2018-Jun-11 19:30N 26°05' W 080°07'1 0.6
2018-Jun-11 18:33N 26°04' W 080°07'0 0.0
2018-Jun-11 18:21N 26°04' W 080°07'0 0.0
2018-Jun-11 18:00N 26°04' W 080°07'0 0.0
2018-Jun-11 17:30N 26°04' W 080°07'0 0.0
2018-Jun-11 17:00N 26°04' W 080°07'0 0.0
2018-Jun-11 16:18N 26°04' W 080°07'0 0.0
2018-Jun-11 15:48N 26°04' W 080°07'0 0.0
2018-Jun-11 15:21N 26°04' W 080°07'0 0.0
2018-Jun-11 14:51N 26°04' W 080°07'0 0.0
2018-Jun-11 14:18N 26°04' W 080°07'0 0.0
2018-Jun-11 13:51N 26°04' W 080°07'0 0.0
2018-Jun-11 13:21N 26°04' W 080°07'0 0.0
2018-Jun-11 12:54N 26°04' W 080°07'0 0.0
2018-Jun-11 12:24N 26°04' W 080°07'0 0.0
2018-Jun-11 11:54N 26°04' W 080°07'0 0.0
2018-Jun-11 11:30N 26°04' W 080°07'1 2.5
2018-Jun-11 11:00N 26°06' W 080°07'4 8.2
2018-Jun-11 10:30N 26°06' W 080°02'4 8.0
2018-Jun-11 10:00N 26°06' W 079°58'510.1
2018-Jun-11 09:30N 26°05' W 079°52'3 6.8
2018-Jun-11 09:00N 26°05' W 079°48'3912.9
2018-Jun-11 06:00N 25°30' W 079°30'   140 / 121017.0 5.4 28.028.028.0

Dump ship's entire track history